Regional Weather Roundup
Issued by NWS New Orleans/Baton Rouge, LA

Home | Current Version | Previous Version | Graphics & Text | Print | Product List | Glossary On
Versions: 1 2 3 4 5 6 7 8 9 10 11 12 13 14 15 16 17 18 19 20 21 22 23 24 25 26 27 28 29 30 31 32 33 34 35 36 37 38 39 40 41 42 43 44 45 46 47 48 49 50
590
ASUS44 KLIX 172101
RWRLIX
NEW ORLEANS REGIONAL WEATHER ROUNDUP
NATIONAL WEATHER SERVICE NEW ORLEANS LA
400 PM CDT THU APR 17 2014

NOTE: "FAIR" INDICATES FEW OR NO CLOUDS BELOW 12,000 FEET WITH NO
      SIGNIFICANT WEATHER AND/OR OBSTRUCTIONS TO VISIBILITY.
      SKY/WX - SKY CONDITION AND SIGNIFICANT WEATHER.
      TMP - AIR TEMPERATURE.     DP    - DEWPOINT TEMPERATURE.
      RH  - RELATIVE HUMIDITY.   PRES  - PRESSURE.
      HI  - HEAT INDEX.          WCI   - WIND CHILL INDEX.

*  THESE STATIONS ARE NOT NWS OR FAA STATIONS AND ARE NOT UNDER
   NWS QUALITY CONTROL.

LAZ038-040-048-061>063-065>067-069-172200-
SOUTHEAST LOUISIANA

CITY           SKY/WX    TMP DP  RH WIND       PRES   REMARKS
N.O. AUDUBON   NOT AVBL
N.O. INTL ARPT CLOUDY    65  59  81 E10       30.14S
N.O. LAKEFRONT CLOUDY    63  60  90 E15G24    30.14F
N.O. DOWNTOWN* CLOUDY    63  55  77 E8        30.15S
SLIDELL        CLOUDY    65  58  78 E5        30.15F
BATON ROUGE    CLOUDY    67  56  67 NE8       30.13F
BOOTHVILLE     LGT RAIN  64  62  93 E6        30.14S FOG
BELLE CHASSE   CLOUDY    65  58  78 E7        30.13F
BOGALUSA*        N/A     67  56  67 E6        30.17F
GALLIANO*      NOT AVBL
NEW ROADS*     NOT AVBL
GONZALES*      CLOUDY    65  60  85 E8        30.14R
HAMMOND*       NOT AVBL
HOUMA*         CLOUDY    66  59  77 NE9       30.14R HAZE
PORT FOURCHON* MOCLDY    66  63  88 E10       30.13F FOG

$$

MSZ070-080>082-172200-
SOUTHERN MISSISSIPPI

CITY           SKY/WX    TMP DP  RH WIND       PRES   REMARKS
MCCOMB         CLOUDY    64  55  72 E6        30.15F
GULFPORT       CLOUDY    66  58  75 SE8       30.16S
BILOXI         CLOUDY    65  59  80 SE8       30.16S
PASCAGOULA     CLOUDY    68  59  73 SE5       30.16S

$$

COASTAL OBSERVATIONS
LAKE AND NEARSHORE STATIONS

STATION/POSITION TIME  TEMP    WIND        PRES    WAVE
                       AIR SEA DIR/SP/G            HT/PER
                 (UTC) (F)     (DEG/KT/KT) (MB)    (FT/S)
PASCAGOULA       2000   67     110/  9/ 13 1020.7
WAVELAND YACHT   2000   63 67  100/  6/  8 1020.4
GRAND ISLE       2000   66 67  100/  9/ 14 1020.4
SOUTHWEST PASS   2000   68 59   70/ 14/ 16 1020.2
NEW CANAL        2000   63 63   80/ 15/ 22 1020.5
SHELL BEACH      2000   61 62   60/ 10/ 12 1021.0

OFFSHORE STATIONS

STATION/POSITION TIME  TEMP    WIND        PRES    WAVE
                       AIR SEA DIR/SP/G            HT/PER
                 (UTC) (F)     (DEG/KT/KT) (MB)    (FT/S)
64 S DAUPHIN ISL 1952   66 71   60/ 21/ 25 1019.8

$$




USA.gov is the U.S. government's official web portal to all federal, state and local government web resources and services.